Kankakee, IL

10:25 PM CDT on July 20, 2017 (GMT -0500)
Greater Kankakee

Weather History for KIKK - October, 2011

Change the Weather History Date:

Thursday, October 13, 2011

  Actual Average Record
Temperature  
Mean Temperature 60 °F -  
Max Temperature 62 °F 66 °F 82 °F (1985)
Min Temperature 57 °F 38 °F 25 °F (1988)
Degree Days  
Heating Degree Days 4    
Growing Degree Days 10 (Base 50)    
Moisture  
Dew Point 57 °F    
Average Humidity 88    
Maximum Humidity 100    
Minimum Humidity 77    
Precipitation  
Precipitation 0.25 in - - ()
Sea Level Pressure  
Sea Level Pressure 29.57 in    
Wind  
Wind Speed 5 mph (SW)    
Max Wind Speed 10 mph    
Max Gust Speed 22 mph    
Visibility 8 miles    
Events Rain    
Averages and records for this station are not official NWS values.
T = Trace of Precipitation, MM = Missing Value Source: NWS Daily Summary

Daily Weather History Graph

Daily Weather History Graph

Search for Another Location

Airport or City:

Trip Planner

Search our weather history database for the weather conditions in past years. The results will help you decide how hot, cold, wet, or windy it might be!

Date:

Astronomy

Oct. 13, 2011 Rise Set
Actual Time 7:00 AM CDT 6:14 PM CDT
Civil Twilight 6:32 AM CDT 6:41 PM CDT
Nautical Twilight 6:00 AM CDT 7:13 PM CDT
Astronomical Twilight 5:28 AM CDT 7:45 PM CDT
Moon 6:48 PM CDT (10/13) 8:33 AM CDT (10/13)
Length of Visible Light 12h 09m
Length of Day
11h 13m
Full, 98% of the Moon is Illuminated
Oct 13
Full
Oct 19
Last Quarter
Oct 26
New
Nov 2
First Quarter
Nov 10
Full

Hourly Weather History & Observations

Time (CDT) Temp. Dew Point Humidity Pressure Visibility Wind Dir Wind Speed Gust Speed Precip Events Conditions
12:15 AM 62.6 °F 55.4 °F 77% 29.66 in 10.0 mi SSE 5.8 mph - N/A   Overcast
12:35 AM 62.6 °F 55.4 °F 77% 29.66 in 10.0 mi SSE 6.9 mph - N/A   Overcast
12:55 AM 62.6 °F 55.4 °F 77% 29.65 in 10.0 mi South 9.2 mph - N/A   Overcast
1:15 AM 62.6 °F 55.4 °F 77% 29.65 in 10.0 mi South 8.1 mph - N/A   Overcast
1:35 AM 60.8 °F 55.4 °F 82% 29.64 in 10.0 mi SSE 5.8 mph - N/A   Light Drizzle
1:55 AM 60.8 °F 55.4 °F 82% 29.64 in 10.0 mi SSE 6.9 mph - N/A Rain Light Rain
2:15 AM 60.8 °F 55.4 °F 82% 29.64 in 10.0 mi SSE 6.9 mph - N/A   Drizzle
2:35 AM 60.8 °F 57.2 °F 88% 29.63 in 7.0 mi SSE 8.1 mph - N/A   Light Drizzle
2:55 AM 60.8 °F 57.2 °F 88% 29.63 in 7.0 mi SSE 5.8 mph - N/A Rain Rain
3:15 AM 60.8 °F 57.2 °F 88% 29.62 in 7.0 mi SE 3.5 mph - 0.01 in   Drizzle
3:35 AM 60.8 °F 57.2 °F 88% 29.62 in 5.0 mi SE 3.5 mph - 0.01 in Rain Light Rain
3:55 AM 59.0 °F 57.2 °F 94% 29.61 in 4.0 mi SE 4.6 mph - 0.03 in Rain Light Rain
4:15 AM 59.0 °F 59.0 °F 100% 29.61 in 4.0 mi SE 4.6 mph - 0.02 in Rain Rain
4:35 AM 59.0 °F 57.2 °F 94% 29.60 in 4.0 mi SE 4.6 mph - 0.05 in Rain Light Rain
4:55 AM 59.0 °F 57.2 °F 94% 29.60 in 4.0 mi SE 3.5 mph - 0.06 in Rain Light Rain
5:15 AM 59.0 °F 59.0 °F 100% 29.60 in 5.0 mi SE 4.6 mph - N/A   Light Drizzle
5:35 AM 60.8 °F 59.0 °F 94% 29.60 in 3.0 mi Calm Calm - 0.02 in Rain Heavy Rain
5:55 AM 60.8 °F 59.0 °F 94% 29.59 in 5.0 mi SSE 4.6 mph - 0.02 in Rain Rain
6:15 AM 60.8 °F 59.0 °F 94% 29.59 in 5.0 mi South 4.6 mph - 0.01 in Rain Light Rain
6:35 AM 60.8 °F 59.0 °F 94% 29.58 in 5.0 mi SSE 4.6 mph - 0.01 in   Light Drizzle
6:55 AM 60.8 °F 59.0 °F 94% 29.58 in 5.0 mi SW 4.6 mph - 0.01 in   Light Drizzle
7:15 AM 59.0 °F 55.4 °F 88% 29.58 in 10.0 mi Calm Calm - N/A Rain Light Rain
7:35 AM 59.0 °F 57.2 °F 94% 29.58 in 7.0 mi Calm Calm - 0.01 in   Drizzle
7:55 AM 59.0 °F 57.2 °F 94% 29.58 in 7.0 mi Calm Calm - 0.01 in Rain Light Rain
8:15 AM 59.0 °F 57.2 °F 94% 29.58 in 10.0 mi SSW 3.5 mph - N/A   Light Drizzle
8:35 AM 60.8 °F 57.2 °F 88% 29.58 in 10.0 mi Calm Calm - N/A   Overcast
8:55 AM 60.8 °F 57.2 °F 88% 29.58 in 10.0 mi Calm Calm - N/A   Overcast
9:15 AM 60.8 °F 57.2 °F 88% 29.57 in 10.0 mi WSW 3.5 mph - N/A   Overcast
9:35 AM 60.8 °F 57.2 °F 88% 29.57 in 10.0 mi Calm Calm - N/A   Overcast
9:55 AM 60.8 °F 57.2 °F 88% 29.57 in 10.0 mi Calm Calm - N/A Rain Light Rain
10:15 AM 60.8 °F 57.2 °F 88% 29.57 in 7.0 mi Calm Calm - 0.01 in   Drizzle
10:35 AM 60.8 °F 57.2 °F 88% 29.57 in 7.0 mi Calm Calm - 0.01 in   Drizzle
10:55 AM 60.8 °F 57.2 °F 88% 29.56 in 3.0 mi Calm Calm - 0.02 in   Heavy Drizzle
11:15 AM 60.8 °F 59.0 °F 94% 29.56 in 3.0 mi Calm Calm - 0.01 in Rain Rain
11:35 AM 60.8 °F 57.2 °F 88% 29.56 in 4.0 mi West 6.9 mph - 0.03 in Rain Heavy Rain
11:55 AM 60.8 °F 57.2 °F 88% 29.55 in 10.0 mi West 5.8 mph - 0.04 in   Drizzle
12:15 PM 60.8 °F 59.0 °F 94% 29.55 in 10.0 mi WSW 6.9 mph - N/A   Light Drizzle
12:35 PM 60.8 °F 57.2 °F 88% 29.54 in 10.0 mi West 5.8 mph - N/A   Drizzle
12:55 PM 60.8 °F 57.2 °F 88% 29.53 in 7.0 mi West 4.6 mph - N/A   Drizzle
1:15 PM 60.8 °F 57.2 °F 88% 29.53 in 7.0 mi West 5.8 mph - 0.01 in Rain Heavy Rain
1:35 PM 60.8 °F 57.2 °F 88% 29.52 in 10.0 mi West 8.1 mph - 0.01 in   Light Drizzle
1:55 PM 62.6 °F 57.2 °F 82% 29.51 in 10.0 mi NW 5.8 mph - 0.01 in   Overcast
2:15 PM 62.6 °F 59.0 °F 88% 29.51 in 10.0 mi NW 4.6 mph - N/A Rain Light Rain
2:35 PM 62.6 °F 57.2 °F 82% 29.51 in 10.0 mi West 5.8 mph - N/A   Light Drizzle
2:55 PM 60.8 °F 57.2 °F 88% 29.51 in 5.0 mi West 9.2 mph - 0.02 in Rain Rain
3:15 PM 60.8 °F 57.2 °F 88% 29.51 in 10.0 mi WNW 5.8 mph - 0.01 in   Overcast
3:35 PM 60.8 °F 57.2 °F 88% 29.51 in 10.0 mi WNW 3.5 mph - 0.01 in   Overcast
3:55 PM 60.8 °F 59.0 °F 94% 29.51 in 10.0 mi WNW 4.6 mph - 0.01 in   Overcast
4:15 PM 60.8 °F 57.2 °F 88% 29.50 in 10.0 mi WNW 6.9 mph - N/A   Overcast
4:35 PM 62.6 °F 57.2 °F 82% 29.50 in 10.0 mi West 10.4 mph 21.9 mph N/A   Overcast
4:55 PM 59.0 °F 55.4 °F 88% 29.51 in 10.0 mi WNW 10.4 mph 18.4 mph N/A   Overcast
5:15 PM 59.0 °F 55.4 °F 88% 29.52 in 10.0 mi WNW 10.4 mph 18.4 mph N/A   Overcast
5:35 PM 59.0 °F 55.4 °F 88% 29.52 in 5.0 mi WNW 9.2 mph - 0.01 in Rain Light Rain
5:55 PM 59.0 °F 55.4 °F 88% 29.53 in 10.0 mi WNW 9.2 mph 17.3 mph 0.02 in Rain Rain
6:15 PM 59.0 °F 53.6 °F 82% 29.52 in 10.0 mi NW 5.8 mph - N/A   Light Drizzle
6:35 PM 59.0 °F 53.6 °F 82% 29.53 in 10.0 mi West 5.8 mph - N/A   Overcast
6:55 PM 59.0 °F 55.4 °F 88% 29.53 in 10.0 mi West 4.6 mph - N/A   Overcast
7:15 PM 57.2 °F 55.4 °F 94% 29.54 in 10.0 mi West 4.6 mph - N/A   Mostly Cloudy
7:35 PM 57.2 °F 55.4 °F 94% 29.54 in 10.0 mi WSW 4.6 mph - N/A   Scattered Clouds
7:55 PM 57.2 °F 55.4 °F 94% 29.54 in 10.0 mi WSW 5.8 mph - N/A   Clear
8:15 PM 57.2 °F 53.6 °F 88% 29.54 in 10.0 mi WSW 6.9 mph - N/A   Scattered Clouds
8:35 PM 57.2 °F 53.6 °F 88% 29.55 in 10.0 mi WSW 5.8 mph - N/A   Mostly Cloudy
8:55 PM 57.2 °F 53.6 °F 88% 29.55 in 10.0 mi West 9.2 mph - N/A   Overcast
9:15 PM 55.4 °F 51.8 °F 88% 29.56 in 10.0 mi West 8.1 mph - N/A   Overcast
9:35 PM 55.4 °F 48.2 °F 77% 29.56 in 10.0 mi West 10.4 mph - N/A   Mostly Cloudy
9:55 PM 53.6 °F 46.4 °F 77% 29.56 in 10.0 mi West 10.4 mph - N/A   Scattered Clouds
10:15 PM 53.6 °F 46.4 °F 77% 29.57 in 10.0 mi West 9.2 mph - N/A   Clear
10:35 PM 53.6 °F 46.4 °F 77% 29.57 in 10.0 mi West 9.2 mph - N/A   Clear
10:55 PM 53.6 °F 46.4 °F 77% 29.57 in 10.0 mi West 8.1 mph - N/A   Clear
11:15 PM 51.8 °F 46.4 °F 82% 29.57 in 10.0 mi West 4.6 mph - N/A   Clear
11:35 PM 51.8 °F 46.4 °F 82% 29.57 in 10.0 mi West 6.9 mph - N/A   Clear
11:55 PM 50.0 °F 46.4 °F 87% 29.57 in 10.0 mi West 8.1 mph - N/A   Clear